EW5523 Weather Reports


time (UTC)temp
C
wind
direction
speed
KPH
gust
KPH
rain 1hr
cm
rain 24hr
cm
rain mn
cm
humidity
%
barometer
mb
20260508170027 17 303 4.8 14.5 0.00 0.03 0.03 73 1005.9
20260508164535 17 15 0.0 16.1 0.03 0.03 0.03 71 1004.7
20260508163025 18 324 0.0 9.7 0.03 0.03 0.03 71 1004.2
20260508161524 18 326 0.0 1.6 0.03 0.03 0.03 69 1003.9
20260508160034 19 341 0.0 9.7 0.03 0.03 0.03 65 1003.8
20260508154522 22 285 3.2 9.7 0.00 0.00 0.00 43 1004.3
20260508153020 23 187 0.0 6.4 0.00 0.00 0.00 42 1003.4
20260508151518 23 253 0.0 4.8 0.00 0.00 0.00 41 1003.7
20260508150020 23 222 0.0 9.7 0.00 0.00 0.00 39 1003.9
20260508144516 25 213 0.0 9.7 0.00 0.00 0.00 38 1003.8
20260508143016 25 199 0.0 9.7 0.00 0.00 0.00 37 1003.8
20260508141514 25 154 1.6 12.9 0.00 0.00 0.00 37 1004.1
20260508140012 25 218 1.6 12.9 0.00 0.00 0.00 36 1004.3
20260508134512 25 202 3.2 16.1 0.00 0.00 0.00 36 1004.6
20260508133013 25 191 1.6 9.7 0.00 0.00 0.00 36 1004.9
20260508131506 25 253 0.0 12.9 0.00 0.00 0.00 37 1005.2
20260508130004 25 216 1.6 12.9 0.00 0.00 0.00 36 1005.5
20260508124501 25 170 0.0 9.7 0.00 0.00 0.00 35 1005.7
20260508123059 25 235 1.6 14.5 0.00 0.00 0.00 35 1005.9
20260508121605 25 189 1.6 11.3 0.00 0.00 0.00 35 1006.1
20260508114554 25 130 4.8 16.1 0.00 0.00 0.00 36 1006.5
20260508113057 25 250 0.0 11.3 0.00 0.00 0.00 37 1006.9
20260508111557 24 141 1.6 16.1 0.00 0.00 0.00 36 1007.0
20260508110058 24 120 3.2 14.5 0.00 0.00 0.00 36 1007.1
20260508104545 23 158 0.0 11.3 0.00 0.00 0.00 36 1007.3
20260508103055 23 156 0.0 11.3 0.00 0.00 0.00 36 1007.6
20260508101543 23 205 3.2 14.5 0.00 0.00 0.00 36 1007.9
20260508100037 23 185 1.6 11.3 0.00 0.00 0.00 35 1008.0
20260508094539 23 154 3.2 11.3 0.00 0.00 0.00 34 1008.2
20260508093031 22 236 8.0 22.5 0.00 0.00 0.00 35 1008.5
20260508091528 22 134 3.2 12.9 0.00 0.00 0.00 34 1008.7
20260508090029 22 164 1.6 9.7 0.00 0.00 0.00 34 1009.0
20260508084524 22 164 0.0 11.3 0.00 0.00 0.00 34 1009.3
20260508083020 22 248 0.0 8.0 0.00 0.00 0.00 35 1009.4
20260508081520 21 163 3.2 11.3 0.00 0.00 0.00 35 1009.6
20260508080022 21 146 1.6 9.7 0.00 0.00 0.00 34 1009.7
20260508074514 21 125 0.0 6.4 0.00 0.00 0.00 33 1009.9
20260508073012 21 159 1.6 8.0 0.00 0.00 0.00 32 1010.1
20260508071509 20 156 3.2 12.9 0.00 0.00 0.00 33 1010.2
20260508070007 20 154 3.2 9.7 0.00 0.00 0.00 33 1010.3
20260508064505 20 205 1.6 9.7 0.00 0.00 0.00 34 1010.4
20260508063103 19 168 1.6 8.0 0.00 0.00 0.00 36 1010.6
20260508061600 18 144 1.6 6.4 0.00 0.00 0.00 37 1010.6
20260508060057 18 166 0.0 8.0 0.00 0.00 0.00 35 1010.9
20260508054602 18 142 0.0 6.4 0.00 0.00 0.00 35 1011.5
20260508053054 18 118 1.6 11.3 0.00 0.00 0.00 35 1011.2
20260508051553 17 141 1.6 6.4 0.00 0.00 0.00 37 1011.3
20260508050044 17 98 0.0 0.0 0.00 0.00 0.00 37 1011.7
20260508044541 16 122 0.0 1.6 0.00 0.00 0.00 39 1011.9
20260508043041 15 132 0.0 4.8 0.00 0.00 0.00 42 1011.7
20260508041532 15 129 0.0 3.2 0.00 0.00 0.00 43 1011.7
20260508040038 14 118 0.0 4.8 0.00 0.00 0.00 41 1012.0
20260508034529 13 103 0.0 0.0 0.00 0.00 0.00 44 1012.2
20260508033025 13 103 0.0 0.0 0.00 0.00 0.00 45 1012.4
20260508031529 12 102 0.0 0.0 0.00 0.00 0.00 47 1012.4
20260508030022 12 102 0.0 0.0 0.00 0.00 0.00 51 1012.5
20260508024532 11 102 0.0 0.0 0.00 0.00 0.00 50 1012.6
20260508023028 11 110 0.0 1.6 0.00 0.00 0.00 51 1012.7
20260508021520 11 77 0.0 0.0 0.00 0.00 0.00 52 1012.6
20260508020020 10 93 0.0 0.0 0.00 0.00 0.00 55 1012.7
20260508014540 10 96 0.0 0.0 0.00 0.00 0.00 55 1012.5
20260508013020 9 97 0.0 0.0 0.00 0.00 0.00 57 1012.6
20260508011521 7 70 0.0 1.6 0.00 0.00 0.00 65 1012.2
20260508010025 8 93 0.0 0.0 0.00 0.00 0.00 60 1012.6
20260508004521 8 56 0.0 0.0 0.00 0.00 0.00 56 1013.1
20260508003034 8 56 0.0 0.0 0.00 0.00 0.00 56 1013.3
20260508001509 10 56 0.0 0.0 0.00 0.00 0.00 55 1013.2
20260508000011 10 67 0.0 0.0 0.00 0.00 0.00 51 1013.5
20260507234507 10 67 0.0 0.0 0.00 0.00 0.00 51 1013.3
20260507233005 10 77 0.0 0.0 0.00 0.00 0.00 53 1013.0
20260507231502 10 53 0.0 1.6 0.00 0.00 0.00 50 1013.1
20260507230002 10 48 0.0 0.0 0.00 0.00 0.00 50 1013.1
20260507224502 10 87 0.0 0.0 0.00 0.00 0.00 51 1012.9
20260507223001 10 86 0.0 0.0 0.00 0.00 0.00 51 1012.7
20260507221601 10 85 0.0 0.0 0.00 0.00 0.00 52 1012.7
20260507220101 10 79 0.0 0.0 0.00 0.00 0.00 53 1012.8
20260507214603 11 78 0.0 0.0 0.00 0.00 0.00 53 1013.0
20260507213054 11 78 0.0 0.0 0.00 0.00 0.00 50 1013.0
20260507211615 11 78 0.0 0.0 0.00 0.00 0.00 50 1013.1
20260507210049 12 46 0.0 0.0 0.00 0.00 0.00 48 1013.1
20260507204547 12 50 0.0 1.6 0.00 0.00 0.00 46 1013.1
20260507203044 12 37 0.0 0.0 0.00 0.00 0.00 46 1013.1
20260507201541 13 41 0.0 1.6 0.00 0.00 0.00 46 1013.0
20260507200039 13 53 0.0 1.6 0.00 0.00 0.00 46 1012.9
20260507194540 13 46 0.0 0.0 0.00 0.00 0.00 47 1012.8
20260507193036 13 60 0.0 4.8 0.00 0.00 0.00 46 1012.7
20260507191533 14 58 0.0 9.7 0.00 0.00 0.00 45 1012.5
20260507190036 14 30 1.6 9.7 0.00 0.00 0.00 45 1012.6
20260507184531 14 36 0.0 12.9 0.00 0.00 0.00 45 1012.6
20260507183031 15 37 0.0 8.0 0.00 0.00 0.00 45 1012.6
20260507181529 15 37 0.0 9.7 0.00 0.00 0.00 44 1012.5
20260507180028 15 33 0.0 9.7 0.00 0.00 0.00 44 1012.4
20260507174528 15 66 1.6 12.9 0.00 0.00 0.00 43 1012.5
20260507173031 16 21 0.0 8.0 0.00 0.00 0.00 43 1012.4
20260507171527 16 35 0.0 8.0 0.00 0.00 0.00 43 1012.4